Regional Weather Roundup
Issued by NWS

Home | Current Version | Previous Version | Text Only | Print | Product List | Glossary On
Versions: 1 2 3 4 5 6 7 8 9 10 11 12 13 14 15 16 17 18 19 20 21 22 23 24 25 26 27 28 29 30 31 32 33 34 35 36 37 38 39 40 41 42 43 44 45 46 47 48 49 50
115
ASUS45 KTFX 260310
RWRMT
MONTANA REGIONAL WEATHER ROUNDUP
NATIONAL WEATHER SERVICE GREAT FALLS MT
800 PM MST SUN FEB 25 2018

NOTE: "FAIR" INDICATES FEW OR NO CLOUDS BELOW 12000 FEET WITH NO
SIGNIFICANT WEATHER AND/OR OBSTRUCTIONS TO VISIBILITY.

MTZ001>007-043-260400-
WEST OF THE DIVIDE

CITY           SKY/WX    TMP DP  RH WIND       PRES   REMARKS
KALISPELL      SNOW      30  30 100 W7        29.53R VSB 1/2 WCI  23
MISSOULA       MOCLDY    33  22  63 SW7G24    29.62S WCI  27
BUTTE          MOCLDY    26  16  65 S16       29.63F WCI  14
MULLAN PASS    SNOW      22  17  81 MISG      29.49R VSB 1/2
ANACONDA         N/A     27  21  80 S9        29.63F WCI  17
DEER LODGE       N/A     27  18  69 S9        29.62S WCI  17
EUREKA           N/A     30  28  93 MISG      29.52R
HAMILTON         N/A     30  25  80 MISG      29.66F
RONAN            N/A     34  25  69 S14       29.60R WCI  24
$$

MTZ008-052>055-260400-
SOUTHWEST MONTANA

CITY           SKY/WX    TMP DP  RH WIND       PRES   REMARKS
BOZEMAN        MOCLDY    30  12  47 SW14      29.68S WCI  19
DILLON         MOCLDY    21  12  68 S22       29.66F WCI   5
ENNIS          CLOUDY    25  12  58 S31G38    29.75F WCI   8
W YELLOWSTONE  LGT SNOW  16  12  86 SW8G22    29.78F VSB 3/4 WCI   5
$$

MTZ009-010-012-014-046-048-049-054-260400-
EAST SLOPES AND CENTRAL MONTANA

CITY           SKY/WX    TMP DP  RH WIND       PRES   REMARKS
CUT BANK       MOCLDY    26  21  81 SW9       29.43F WCI  17
GREAT FALLS    FAIR      30  19  63 SW26G36   29.50S WCI  16
MALMSTROM AFB  FAIR      28  22  78 SW21      29.51F WCI  14
HELENA         CLOUDY    34  21  59 S14G26    29.60S WCI  25
AUGUSTA        MOCLDY    25  20  81 SW15      29.49R WCI  13
BOWMANS CRNR   FAIR      27  20  77 SW26      29.49F WCI  11
CHOTEAU          N/A     28  21  74 SW18      29.49S WCI  16
FAIRFIELD      FAIR      26  19  76 S17       29.49S WCI  13
POWER          FAIR      27  21  79 SW22      29.48S WCI  13
RAYNESFORD     FAIR      32  18  56 SW28G37   29.51F WCI  18
ULM            FAIR      31  21  65 SW26G44   29.52S WCI  17
WHITE SULPHUR    N/A     25  14  63 SW22G31   29.57F WCI  10
$$

MTZ011-013-016-021-045-047-050-051-260400-
NORTH CENTRAL MONTANA

CITY           SKY/WX    TMP DP  RH WIND       PRES   REMARKS
HAVRE          MOCLDY    29  23  78 SW16      29.49R WCI  17
LEWISTOWN      FAIR      28  20  71 SW32G39   29.56S WCI  12
N BAR RANCH    FAIR      32  14  47 W23G38    29.56F WCI  19
CHINOOK          N/A     34  23  64 W13       29.49S WCI  25
GEYSER         FAIR      29  19  64 SW25G37   29.50S WCI  15
STANFORD       FAIR      28  18  67 SW31G38   29.51S WCI  12
WINIFRED       FLURRIES  29  22  73 SW36      29.52F WCI  13
$$

MTZ017>020-022>027-061-062-260400-
NORTHEAST MONTANA

CITY           SKY/WX    TMP DP  RH WIND       PRES   REMARKS
GLASGOW        CLOUDY    30  18  60 S8        29.54F WCI  22
GLENDIVE       FAIR      26  18  71 SW17      29.64F WCI  13
JORDAN           N/A     32  23  69 SW22      29.58S WCI  19
MALTA          CLOUDY    30  21  69 W7        29.50F WCI  23
SIDNEY         FAIR      18  13  80 SW13      29.63S WCI   5
WOLF POINT     FAIR      25  16  68 SW7       29.59S WCI  17
PLENTYWOOD       N/A     25  16  68 SW13      29.54S WCI  13
POPLAR           N/A     23  16  74 W3        29.59F
$$

MTZ028>42-056>058-260400-
SOUTHCENTRAL AND SOUTHEAST MONTANA

CITY           SKY/WX    TMP DP  RH WIND       PRES   REMARKS
BAKER          FAIR      26  13  57 SW18      29.68S WCI  13
BILLINGS       FAIR      30  12  47 SW15      29.67F WCI  19
LIVINGSTON     MOCLDY    30  11  45 SW49G60   29.60F WCI  12
MILES CITY     FAIR      24  14  65 SW17      29.66F WCI  11
BIG TIMBER     CLOUDY    28  12  50 SW28      29.67S WCI  13
FORSYTH          N/A     34  14  44 SW12      29.66S WCI  25
HARLOWTON      FAIR      29  12  48 W6        29.61F WCI  23
LAUREL           N/A     28  12  50 SW20      29.69R WCI  15
$$

REGIONAL REPORTS...DAKOTAS

CITY           SKY/WX    TMP DP  RH WIND       PRES   REMARKS
WILLISTON      FAIR      18  13  80 SW8       29.61S WCI   8
MINOT          FAIR      25  14  63 SW8       29.61S WCI  16
DICKINSON      FAIR      22  14  71 SW17      29.64F WCI   8
BEACH          FAIR      23  14  68 SW17      29.67F WCI   9
CROSBY         FAIR      18  14  86 SW18      29.56S WCI   2
TIOGA          FAIR      19  18  93 SW13      29.59S WCI   7
BISMARCK       FAIR      24  16  71 SW6       29.72F WCI  17
GRAND FORKS    FAIR      13  10  88 S12       29.75R WCI  -1
FARGO          FAIR      18  13  80 S10       29.80S WCI   6
BUFFALO SD       N/A     23   9  55 W10       29.66F WCI  12
RAPID CITY     FAIR      21   6  52 S9        29.82S WCI  11
$$

REGIONAL REPORTS...WYOMING/IDAHO/WASHINGTON

CITY           SKY/WX    TMP DP  RH WIND       PRES   REMARKS
GILLETTE       FAIR      25  13  60 SW24G33   29.74F WCI   9
SHERIDAN       FAIR      34  11  38 W16       29.70F WCI  24
BUFFALO WY     FAIR      26   3  37 SW8       29.72F WCI  18
CODY           FAIR      27   7  42 VRB6      29.79F WCI  20
YELLOWSTONE LA   N/A     11   6  81 CALM      29.80F
IDAHO FALLS    CLOUDY    25  16  68 S14       29.96F WCI  13
SALMON         CLOUDY    36  15  42 SW15G22   29.71F WCI  27
BOISE          CLOUDY    35  25  66 SE18G28   29.88F WCI  24
SPOKANE        MOCLDY    33  23  66 W20       29.62R WCI  21
$$

REGIONAL REPORTS...ALBERTA

CITY           SKY/WX    TMP DP  RH WIND       PRES   REMARKS
CALGARY        PTCLDY    23   7  50 N13G24    29.38R WCI  11
CARDSTON         N/A     28  21  74 W13G20      N/A  WCI  18
EDMONTON       CLOUDY    27  21  80 W5        29.39R
FORT MCMURRAY  CLOUDY    18  12  79 NW9       29.47R WCI   6
HIGH LEVEL     FLURRIES  16  10  79 N2        29.50R
LETHBRIDGE     CLOUDY    28  23  80 W14       29.42R WCI  17
LLOYDMINSTER   MOCLDY    19  14  79 W10       29.32R WCI   8
MEDICINE HAT   MOCLDY    27  21  80 S13       29.41S WCI  16
MILK RIVER       N/A     28  25  86 W20         N/A  WCI  15
PEACE RIVER    MOCLDY    14   9  79 NE3       29.48R
PINCHER CREEK  MOCLDY    25  18  74 NW9       29.41R WCI  15
WATERTON GATE    N/A     25  23  93 SW6         N/A  WCI  18
$$

REGIONAL REPORTS...SASKATCHEWAN

CITY           SKY/WX    TMP DP  RH WIND       PRES   REMARKS
CORONACH         N/A     25  18  74 SW16        N/A  WCI  12
CYPRESS HILLS    N/A     23  16  74 W9          N/A  WCI  13
ESTEVAN        PTCLDY    14   9  79 SW9       29.55S WCI   2
MOOSE JAW        N/A     23  16  74 SW14G21     N/A  WCI  11
PRINCE ALBERT  CLOUDY    12   7  79 CALM      29.41S
REGINA         MOCLDY    12   7  79 SE9       29.46F WCI   0
ROCKGLEN         N/A     25  18  74 SW20        N/A  WCI  11
SASKATOON      CLEAR     12   7  79 SW8       29.40S WCI   1
VAL MARIE        N/A     19  14  79 SW6         N/A  WCI  11
$$




USA.gov is the U.S. government's official web portal to all federal, state and local government web resources and services.